   Observers K. Korlević, D. Pujagic, V. Dobos. Measurers D. Pujagic, K.
   Korlević. 1.0-m f/2.9 reflector + CCD.
(U94) iTelescope Observatory, Beryl Junction  (N37.737780 W113.697500)
   US/Utah.  Observer H. Sato. 0.51-m f/4.5 Corrected Dall-Kirkham +
   CCD0.51-m f/6.8 astrograph + f/4.5 focal reducer + CCD.
(V06) Catalina Sky Survey-Kuiper  (N32.416871 W110.732550)  US/Arizona.
   Observers T. A. Pruyne, B. M. Africano, E. J. Christensen, G. A. Farneth,
   D. C. Fuls, A. R. Gibbs, A. D. Grauer, H. Gröller, J. A. Johnson, R. A.
   Kowalski, S. M. Larson, G. J. Leonard, D. Rankin, R. L. Seaman, F. C.
   Shelly, K. W. Wierzchoś. 1.55-m reflector + CCD.
(Y66) Two-Meter Twin Telescope, TTT2, Teide  (N28.298728 W16.509470)  Canary
   Islands (Spain).
(Y89) Proxima Centauri Observatory, Valdin  (N42.222443 W6.988110)  Spain.

Orbital elements:  CADZDR2
   Perihelion 2024 Sep 6.98443 +/- 0.001 TT = 23:37:34 (JD 2460560.48443)
Epoch 2024 May  5.0 TT = JDT 2460435.5                           AutoNEOCP
M 359.98975104 +/- 0.000057         (J2000 ecliptic)
n   0.00008200 +/- 4.62e-7          Peri.  209.55676 +/- 0.00059
a 524.711191 +/- 1.97               Node   316.39895 +/- 0.00013
e   0.9943723 +/- 2.11e-5           Incl.   50.39000 +/- 0.00028
P  12019                   H 14.88  G  0.15   U  2.9
q 2.95291196 +/- 2.34e-5    Q 1046.46947 +/- 3.95
90 of 92 observations 2023 Dec. 15-2024 May 5; mean residual 0".34
Residuals in arcseconds: 
231215 F52  .13+  .03+    240405 I52  .03+  .07-    240411 V06  .77-  .16+    
231215 F52  .08+  .05-    240405 I52  .35+  .60-    240412 G00  .57+  .08-    
231215 F52  .10+  .02+    240405 I52  .43+  .23-    240412 G00  .71+  .38+    
240103 F52  .13-  .02-    240405 I52( 1.7+  .28+)   240412 G00  .56+  .14-    
240103 F52  .09+  .07+    240406 L01  .05-  .40+    240420 291  .25+  .06+    
240103 F52  .01-  .05+    240406 587  .66+  .02+    240420 291  .83+  .12-    
240106 I41  .48-  .57+    240406 587  .67+  .43+    240421 G96  .19-  .00     
240106 F51  .20-  .09-    240406 L01  .34+  .19-    240421 G96  .57+  .19+    
240106 F51  .16+  .35-    240406 L01  .59+  .02+    240421 G96  .27-  .64-    
240106 F51  .15-  .05+    240408 291  .40+  .04+    240421 G96  .35-  .21+    
240113 I41  .40+  .13-    240408 291  .39+  .11+    240421 Y89  .46-  .47-    
240115 I41  .29-  .03-    240408 291  .52+  .01-    240421 Y89  .13+  .31+    
240115 I41  .27-  .60-    240408 F51  .22-  .07+    240421 Y89  .78-  1.0+    
240117 I41  .17-  .15-    240408 F51  .47-  .00     240422 Y66  .66+  .86-    
240131 I41  .07+  .72+    240408 F51  .03-  .04-    240422 Y66  .08-  .05-    
240205 F52  .17+  .29+    240408 F51  .05-  .03-    240422 Y66  .29+  .75-    
240205 F52  .20+  .04+    240408 G00  .10-  1.3+    240424 204  .08+  .85-    
240205 F52  .18-  .08+    240408 Y66  .28+  .53-    240424 204  .04-  .11+    
240205 F52  .13-  .06-    240408 Y66  .26-  .02-    240424 Y66  .32+  .22-    
240217 G96  .16+  .06-    240408 G00( 1.2-  1.3+)   240424 Y66  .07+  .25+    
240217 G96  .04-  .38-    240408 Y66  .41-  .09+    240424 Y66  .17-  .10+    
240217 G96  .30-  .13-    240409 J57  .08+  .11-    240430 V06  .39-  .03-    
240217 G96  .23-  .15-    240409 J57  .38-  .59+    240430 V06  .26-  .00     
240405 G96  .13-  .46-    240409 Y66  .07+  .09-    240430 V06  .19-  .03-    
240405 G96  .25+  .53+    240409 Y66  .51-  .32+    240430 V06  .26-  .09+    
240405 G96  .06+  .40-    240409 Y66  .03-  .03+    240502 673  .35+  .02-    
240405 G96  .41-  .56-    240410 U94  .04+  .20-    240502 673  .19-  .09-    
240405 G96  .66+  .37-    240410 U94  .30+  .19-    240505 Y66  .10-  .23-    
240405 G96  .07-  .13-    240411 V06  .06-  .10+    240505 Y66  .07-  .28+    
240405 G96  .30+  .02+    240411 V06  .34-  .17+    240505 Y66  .26-  .33+    
240405 G96  .37+  .07-    240411 V06  .14-  .37-    

Ephemerides (geocentric):
Date (UTC) HH   RA             Dec           delta  r     elong  mag " sig PA
---- --------  ------------   ------------  ------ ------ -----  --- --------
2024 05 08 02  08 00 28.809   +22 10 00.52  3.3905 3.1908  70.1 21.0 .099  81
2024 05 08 03  08 00 30.671   +22 09 28.18  3.3910 3.1906  70.0 21.0 .099  81
2024 05 08 04  08 00 32.535   +22 08 55.85  3.3914 3.1904  70.0 21.0 .099  81
2024 05 08 05  08 00 34.400   +22 08 23.52  3.3918 3.1903  70.0 21.0 .099  81
2024 05 08 06  08 00 36.266   +22 07 51.19  3.3922 3.1901  69.9 21.0 .099  81
2024 05 08 07  08 00 38.134   +22 07 18.86  3.3926 3.1900  69.9 21.0 .099  81
2024 05 08 08  08 00 40.003   +22 06 46.54  3.3931 3.1898  69.9 21.0 .100  81
2024 05 08 09  08 00 41.873   +22 06 14.21  3.3935 3.1897  69.8 21.0 .100  81
2024 05 08 10  08 00 43.744   +22 05 41.89  3.3939 3.1895  69.8 21.0 .100  81
2024 05 08 11  08 00 45.617   +22 05 09.57  3.3943 3.1894  69.8 21.0 .100  81
2024 05 08 12  08 00 47.491   +22 04 37.24  3.3947 3.1892  69.8 21.0 .100  81
2024 05 08 13  08 00 49.366   +22 04 04.92  3.3952 3.1891  69.7 21.0 .100  81
2024 05 08 14  08 00 51.243   +22 03 32.61  3.3956 3.1889  69.7 21.0 .101  81
2024 05 08 15  08 00 53.121   +22 03 00.29  3.3960 3.1887  69.7 21.0 .101  81
2024 05 08 16  08 00 55.000   +22 02 27.97  3.3964 3.1886  69.6 21.0 .101  81
2024 05 08 17  08 00 56.880   +22 01 55.66  3.3968 3.1884  69.6 21.0 .101  81
2024 05 08 18  08 00 58.762   +22 01 23.34  3.3972 3.1883  69.6 21.0 .101  81
2024 05 08 19  08 01 00.644   +22 00 51.03  3.3977 3.1881  69.5 21.0 .101  81
2024 05 08 20  08 01 02.529   +22 00 18.72  3.3981 3.1880  69.5 21.0 .102  81
2024 05 08 21  08 01 04.414   +21 59 46.41  3.3985 3.1878  69.5 21.0 .102  81
2024 05 08 22  08 01 06.301   +21 59 14.10  3.3989 3.1877  69.4 21.0 .102  81
2024 05 08 23  08 01 08.189   +21 58 41.79  3.3993 3.1875  69.4 21.0 .102  81
2024 05 09 00  08 01 10.078   +21 58 09.49  3.3998 3.1874  69.4 21.0 .102  81
2024 05 09 01  08 01 11.968   +21 57 37.18  3.4002 3.1872  69.3 21.0 .102  81
2024 05 09 02  08 01 13.860   +21 57 04.88  3.4006 3.1871  69.3 21.0 .103  81
2024 05 09 03  08 01 15.753   +21 56 32.58  3.4010 3.1869  69.3 21.0 .103  81
2024 05 09 04  08 01 17.647   +21 56 00.28  3.4014 3.1867  69.2 21.0 .103  81
2024 05 09 05  08 01 19.543   +21 55 27.98  3.4018 3.1866  69.2 21.0 .103  81
2024 05 09 06  08 01 21.439   +21 54 55.68  3.4023 3.1864  69.2 21.0 .103  81
2024 05 09 07  08 01 23.338   +21 54 23.38  3.4027 3.1863  69.2 21.0 .103  81
2024 05 09 08  08 01 25.237   +21 53 51.08  3.4031 3.1861  69.1 21.0 .104  81
2024 05 09 09  08 01 27.137   +21 53 18.79  3.4035 3.1860  69.1 21.0 .104  81
2024 05 09 10  08 01 29.039   +21 52 46.50  3.4039 3.1858  69.1 21.0 .104  81
2024 05 09 11  08 01 30.942   +21 52 14.20  3.4044 3.1857  69.0 21.0 .104  81
2024 05 09 12  08 01 32.846   +21 51 41.91  3.4048 3.1855  69.0 21.0 .104  81
2024 05 09 13  08 01 34.752   +21 51 09.62  3.4052 3.1854  69.0 21.0 .104  81
2024 05 09 14  08 01 36.659   +21 50 37.33  3.4056 3.1852  68.9 21.0 .105  81
2024 05 09 15  08 01 38.567   +21 50 05.05  3.4060 3.1851  68.9 21.0 .105  81
2024 05 09 16  08 01 40.476   +21 49 32.76  3.4064 3.1849  68.9 21.0 .105  81
2024 05 09 17  08 01 42.386   +21 49 00.47  3.4069 3.1848  68.8 21.0 .105  81
2024 05 09 18  08 01 44.298   +21 48 28.19  3.4073 3.1846  68.8 21.0 .105  81
2024 05 09 19  08 01 46.211   +21 47 55.91  3.4077 3.1845  68.8 21.0 .105  81
2024 05 09 20  08 01 48.125   +21 47 23.62  3.4081 3.1843  68.7 21.0 .105  81
2024 05 09 21  08 01 50.041   +21 46 51.34  3.4085 3.1841  68.7 21.0 .106  81
2024 05 09 22  08 01 51.958   +21 46 19.06  3.4089 3.1840  68.7 21.0 .106  81
2024 05 09 23  08 01 53.876   +21 45 46.79  3.4094 3.1838  68.7 21.0 .106  81
2024 05 10 00  08 01 55.795   +21 45 14.51  3.4098 3.1837  68.6 21.0 .106  81
2024 05 10 01  08 01 57.715   +21 44 42.23  3.4102 3.1835  68.6 21.0 .106  81